SCP
0 0 0 0 0 0 0 0 0 0 0 0 0 0 0 0 0 0 0 0 0 0 0 0 0 0 0 0 0 0 0 0 0 0 0 0 0 0 0 0 0 0 0
0 0 0 0 0 0 0 0 0 0 0 0 0 0 0 0 0 0 0 0 0 0 0 0 0 0 0 0 0 0 0 0 0 0 0 0 0 0 0 0 0 0 0
0 0 0 0 0 0 0 0 0 0 0 0 0 0 0 0 0 0 0 0 0 0 0 0 0 0 0 0 0 0 0 0 0 0 0 0 0 0 0 0 0 0 0
0 0 0 0 0 0 0 0 0 0 0 0 0 0 0 0 0 0 0 0 0 0 0 0 0 0 0 0 0 0 0 0 0 0 0 0 0 0 0 0 0 0 0
0 0 0 0 0 0 0 0 0 0 0 0 0 0 0 0 0 0 0 0 0 0 0 0 0 0 0 0 0 0 0 0 0 0 0 0 0 0 0 0 0 0 0
0 0 0 0 0 0 0 0 0 0 0 0 0 0 0 0 0 0 0 0 0 0 0 0 0 0 0 0 0 0 0 0 0 0 0 0 0 0 0 0 0 0 0
0 0 0 0 0 0 0 0 0 0 0 1 0 0 0 1 0 0 0 0 0 0 0 0 0 0 0 0 0 0 0 0 0 0 0 0 0 0 0 0 0 0 0
0 0 0 0 0 0 0 0 0 0 1 1 1 1 1 1 1 1 0 0 0 0 0 0 0 0 0 0 0 0 0 0 0 0 0 0 0 0 0 0 0 0 0
0 0 0 0 0 0 0 0 0 0 1 1 1 1 1 1 1 1 0 0 0 0 0 0 0 0 0 0 0 0 0 0 0 0 0 0 0 0 0 0 0 0 0
0 0 0 0 0 0 0 0 0 0 0 1 1 1 1 1 1 1 1 0 0 0 0 0 0 0 0 0 0 0 0 0 0 0 0 0 0 0 0 0 0 0 0
0 0 0 0 0 0 0 0 0 0 0 0 0 1 1 1 1 1 0 0 0 0 0 0 0 0 0 0 0 0 0 0 0 0 0 0 0 0 0 0 0 0 0
0 0 0 0 0 0 0 0 0 0 0 0 0 0 0 1 0 0 0 0 0 0 0 0 0 0 0 0 0 0 0 0 0 0 0 0 0 0 0 0 0 0 0
0 0 0 0 0 0 0 0 0 0 0 0 0 0 0 0 0 0 0 0 0 0 0 0 0 0 0 0 0 0 0 0 0 0 0 0 0 0 0 0 0 0 0
0 0 0 0 0 0 0 0 0 0 0 0 0 0 0 0 0 0 0 0 0 0 0 0 0 0 0 0 0 0 0 0 0 0 0 0 0 0 0 0 0 0 0
0 0 0 0 0 0 0 0 0 0 0 0 0 0 0 0 0 0 0 0 0 0 0 0 0 0 0 0 0 0 0 0 0 0 0 0 0 0 0 0 0 0 0
0 0 0 0 0 0 0 0 0 0 0 0 0 0 0 0 0 0 0 0 0 0 0 0 0 0 0 0 0 0 0 0 0 0 0 0 0 0 0 0 0 0 0
0 0 0 0 0 0 0 0 0 0 0 0 0 0 0 0 0 0 0 0 0 0 0 0 0 0 0 0 0 0 0 0 0 0 0 0 0 0 0 0 0 0 0
0 0 0 0 0 0 0 0 0 0 0 0 0 0 0 0 0 0 0 0 0 0 0 0 0 0 0 0 0 0 0 0 0 0 0 0 0 0 0 0 0 0 0
0 0 0 0 0 0 0 0 0 0 0 0 0 0 0 0 0 0 0 0 0 0 0 0 0 0 0 0 0 0 0 0 0 0 0 0 0 0 0 0 0 0 0
0 0 0 0 0 0 0 0 0 0 0 0 0 0 0 0 0 0 0 0 0 0 0 0 0 0 0 0 0 0 0 0 0 0 0 0 0 0 0 0 0 0 0
0 0 0 0 0 0 0 0 0 0 0 0 0 0 0 0 0 0 0 0 0 0 0 0 0 0 0 0 0 0 0 0 0 0 0 0 0 0 0 0 0 0 0
0 0 0 0 0 0 0 0 0 0 0 0 0 0 0 0 0 0 0 0 0 0 0 0 0 0 0 0 0 0 0 0 0 0 0 0 0 0 0 0 0 0 0
0 0 0 0 0 0 0 0 0 0 0 0 0 0 0 0 0 0 0 0 0 0 0 0 0 0 0 0 0 0 0 0 0 0 0 0 0 0 0 0 0 0 0
0 0 0 0 0 0 0 0 0 0 0 0 0 0 0 0 0 0 0 0 0 0 0 0 0 0 0 0 0 0 0 0 0 0 0 0 0 0 0 0 0 0 0
0 0 0 0 0 0 0 0 0 0 0 0 0 0 0 0 0 0 0 0 0 0 0 0 0 0 0 0 0 0 0 0 0 0 0 0 0 0 0 0 0 0 0
0 0 0 0 0 0 0 0 0 0 0 0 0 0 0 0 0 0 0 0 0 0 0 0 0 0 0 0 0 0 0 0 0 0 0 0 0 0 0 0 0 0 0
Wind_Speed
14 14 16 16 16 16 16 17 16 16 13 10 9 8 9 8 8 8 10 11 10 10 9 6 7 7 6 6 6 4 4 3 2 2 2 1 2 4 3 4 4 6 6
13 14 16 17 18 18 18 18 18 17 16 12 11 8 8 8 9 8 10 11 11 11 9 10 7 7 6 7 6 5 3 2 2 2 2 2 3 3 3 3 4 4 5
16 16 17 18 19 19 20 17 19 18 18 16 11 8 7 6 7 9 9 11 12 12 11 11 9 8 8 7 8 7 7 4 3 3 2 3 2 0 3 3 3 4 4
17 16 17 18 20 20 19 19 19 19 19 18 14 15 12 12 12 10 10 11 13 13 12 11 11 9 8 8 7 7 6 5 4 3 2 2 1 2 2 3 3 3 4
18 18 18 19 20 19 18 18 19 20 20 19 19 18 15 13 10 10 12 12 11 12 12 11 10 9 8 8 8 7 7 5 5 4 3 3 2 3 3 3 1 1 3
17 17 16 15 16 16 16 17 19 20 20 20 20 20 19 17 14 13 11 10 9 9 12 11 10 9 8 8 8 8 8 6 5 5 4 4 3 4 4 4 2 1 1
15 16 16 16 16 17 18 18 19 21 21 21 21 21 21 20 19 15 13 12 9 9 11 10 10 8 8 8 7 7 7 6 6 5 4 3 3 2 3 3 2 2 1
13 13 14 14 15 16 17 18 20 20 20 21 21 20 20 15 13 16 13 13 10 10 11 11 10 9 9 8 7 6 6 6 6 6 5 4 3 3 2 2 3 2 2
12 12 12 12 13 14 15 17 18 19 19 20 20 19 19 17 15 15 14 11 10 8 11 10 9 9 9 9 8 6 7 6 6 6 6 5 4 3 2 2 2 2 2
10 10 9 10 10 10 11 13 15 17 17 18 17 14 17 17 15 14 14 12 12 10 11 10 10 9 9 9 8 8 7 8 6 6 7 6 5 4 3 3 2 1 2
9 8 7 7 8 8 9 11 12 13 14 15 15 15 14 14 14 12 13 13 12 12 12 11 11 10 10 10 9 9 9 9 8 7 8 7 7 5 4 3 3 2 1
6 6 6 6 7 8 8 9 10 11 12 12 12 13 12 12 13 12 12 12 12 12 12 12 11 11 10 10 11 11 10 10 10 9 9 9 6 7 5 4 4 3 2
5 5 5 6 7 8 8 8 8 9 9 9 10 11 11 11 12 11 11 11 12 11 11 12 12 12 11 11 10 11 10 10 10 10 10 9 9 8 5 5 4 3 2
6 6 6 7 7 7 8 8 8 7 8 8 9 10 10 10 9 9 10 11 11 12 12 11 11 11 11 11 11 11 11 10 9 8 9 9 8 8 8 5 5 4 3
8 8 8 8 8 8 8 8 8 7 7 8 8 8 7 6 7 8 9 9 9 10 10 11 10 10 10 10 12 12 11 11 10 9 8 7 7 7 6 5 5 5 3
10 9 9 9 10 10 10 9 9 8 7 8 7 6 6 7 7 8 8 9 9 9 10 10 11 11 8 15 17 14 12 11 11 10 9 8 7 8 8 6 6 5 4
11 10 11 11 10 10 10 11 9 8 7 7 6 6 7 7 8 8 9 10 10 10 10 10 11 11 13 19 19 15 11 11 10 10 9 7 6 7 6 7 7 5 4
12 11 10 10 9 9 9 9 9 9 8 8 7 7 8 8 8 8 9 9 8 10 10 10 11 11 13 19 19 17 11 9 9 9 9 9 9 8 7 6 5 4 4
10 8 8 7 7 9 9 9 9 9 9 9 9 9 9 9 9 9 9 8 9 9 8 9 11 11 14 19 20 17 9 8 9 8 8 8 8 11 11 7 6 5 4
6 5 4 5 7 8 9 10 10 10 11 10 9 8 8 9 10 10 9 7 8 8 9 8 8 10 11 18 19 16 8 9 8 7 7 7 9 11 11 7 6 6 4
2 2 4 5 5 7 9 10 9 10 7 7 7 8 8 8 8 8 8 9 8 9 8 9 7 7 9 16 19 16 7 8 8 7 7 7 12 12 11 8 5 5 4
2 2 3 3 4 6 8 8 8 5 6 7 8 8 8 7 7 9 9 9 10 10 10 9 8 6 6 9 14 16 11 10 7 7 6 7 12 11 11 7 6 6 4
2 3 3 4 3 4 5 6 5 6 7 8 7 7 7 7 8 9 10 9 9 8 9 9 8 7 6 8 13 14 13 12 6 5 8 9 11 10 7 8 8 5 4
3 3 4 4 3 2 2 3 5 6 8 8 8 7 8 8 7 7 8 8 9 9 9 9 9 8 8 7 8 8 8 9 7 6 7 10 10 7 5 5 5 4 3
3 3 3 3 3 3 3 3 5 6 7 7 7 7 7 7 7 6 5 7 6 7 9 9 10 11 11 12 15 11 9 8 7 7 5 5 5 5 5 4 4 4 4
4 4 4 4 3 3 3 3 3 5 7 6 6 5 5 5 6 6 4 5 5 6 8 8 8 6 8 14 18 17 15 14 14 8 6 7 7 7 7 6 6 5 5
Wind_Direction
220 208 207 205 205 204 202 199 197 197 192 191 192 196 203 203 206 209 206 203 201 199 202 202 200 198 206 207 203 201 212 217 230 263 276 141 102 99 101 99 92 76 63
213 207 206 204 206 206 205 204 202 199 196 197 194 198 198 205 208 206 209 208 206 203 204 206 203 201 206 207 199 193 201 194 204 250 277 245 169 129 108 102 88 74 68
219 209 205 206 206 208 207 205 204 203 201 199 196 192 196 197 200 208 208 209 208 207 206 208 206 203 203 205 201 196 205 201 190 225 248 260 240 159 146 122 103 75 66
222 216 207 207 208 210 207 208 207 206 203 200 201 198 200 205 207 205 206 206 207 208 208 208 207 205 204 208 202 195 201 201 190 188 226 265 276 260 216 160 125 76 63
222 218 212 210 210 209 207 208 208 208 206 204 204 205 212 214 213 206 207 206 205 208 209 208 206 203 202 204 195 189 193 201 198 179 171 180 198 231 249 246 199 126 79
223 223 218 212 212 208 208 208 208 210 208 206 208 210 212 213 212 207 205 205 203 204 207 205 204 202 199 199 194 190 191 192 189 181 178 178 184 194 212 239 255 278 96
221 220 216 211 210 207 207 207 209 211 208 208 210 212 214 213 213 210 209 206 202 201 203 198 200 196 194 189 181 175 176 177 177 176 173 173 173 163 185 216 227 246 223
226 224 221 217 213 210 208 207 210 213 210 209 211 212 213 213 214 212 209 208 205 201 197 194 192 187 179 170 167 161 160 160 161 159 155 145 141 148 170 188 191 215 221
232 229 226 222 218 213 211 210 211 213 212 211 211 212 211 211 211 209 208 208 204 191 188 183 177 172 166 163 158 152 152 148 148 148 142 134 127 125 136 153 193 218 225
238 234 228 222 221 219 215 214 216 216 214 212 211 211 211 211 210 206 202 199 193 181 177 170 166 162 158 155 151 144 147 144 142 144 142 135 130 126 132 142 158 217 241
239 234 229 221 216 213 211 211 214 216 215 213 212 210 210 207 206 205 200 193 185 178 175 169 164 161 159 156 151 149 150 147 143 144 142 138 138 140 141 141 149 157 204
246 236 223 217 214 212 209 210 210 212 215 213 211 210 207 203 201 200 194 184 179 176 172 165 161 159 159 157 155 153 156 154 153 151 146 145 146 145 145 148 153 157 174
241 231 220 217 217 216 213 211 210 211 209 206 205 205 203 200 198 191 180 176 172 167 164 163 161 161 159 157 155 154 154 155 153 154 153 153 154 152 154 156 156 153 162
237 232 228 224 219 216 215 213 212 207 203 201 202 202 200 197 190 178 171 170 168 164 164 164 161 158 155 153 150 148 147 145 144 147 151 156 160 159 159 159 160 159 168
242 234 228 222 216 212 211 210 208 200 196 197 200 200 188 178 168 165 164 160 161 159 156 153 150 150 151 155 152 149 148 146 143 145 149 152 149 152 157 160 166 170 177
251 238 228 222 217 210 206 202 202 194 190 193 193 179 168 161 160 157 152 150 150 146 148 153 153 154 155 158 154 150 149 149 150 151 150 147 151 156 161 167 174 182 187
251 239 232 226 217 209 201 199 194 184 184 183 173 167 165 161 159 155 154 154 153 149 152 155 155 155 158 159 154 150 149 151 154 155 155 155 160 164 166 171 177 186 203
249 244 236 230 213 200 196 190 179 178 180 181 177 172 170 164 157 157 158 155 152 156 155 156 156 151 157 158 154 148 145 147 152 158 161 161 166 175 174 173 178 189 203
249 244 232 220 196 189 183 175 177 178 183 187 184 177 172 166 163 164 162 155 154 154 153 155 156 153 156 161 157 151 145 148 153 157 163 167 171 179 181 179 183 194 207
248 238 208 186 184 179 169 173 180 185 194 191 181 173 171 169 169 166 158 153 152 151 146 149 155 154 156 163 162 157 151 153 155 159 168 178 180 183 188 189 191 205 208
243 186 172 179 180 164 166 178 185 197 187 163 160 166 169 168 164 156 153 151 147 144 146 146 148 151 156 165 168 166 160 162 162 168 176 184 188 191 196 197 200 208 191
90 118 145 149 145 156 168 182 193 174 147 153 160 164 164 162 157 154 152 153 152 151 151 149 149 152 157 167 174 174 172 166 167 174 176 182 188 195 197 198 199 192 186
82 94 123 125 128 152 169 181 167 145 148 153 160 160 159 160 161 161 160 159 163 163 162 164 164 165 167 176 179 180 178 176 170 170 174 177 186 192 198 201 193 182 191
71 83 109 121 121 130 138 143 138 146 152 159 160 160 163 164 164 167 170 172 175 174 173 174 172 168 172 178 177 177 177 178 177 168 170 178 185 186 181 184 186 192 204
64 76 94 104 104 112 117 122 142 151 155 158 159 162 167 166 169 174 183 187 192 191 182 182 177 174 184 191 183 175 179 179 176 158 161 176 182 190 193 196 195 197 197
65 68 69 78 82 95 100 113 143 153 154 157 163 166 166 167 169 168 169 193 189 193 196 189 183 188 185 176 184 187 186 181 170 164 184 194 199 203 202 201 202 203 208